Time,TemperatureF,DewpointF,PressureIn,WindDirection,WindDirectionDegrees,WindSpeedMPH,WindSpeedGustMPH,Humidity,HourlyPrecipIn,Conditions,Clouds,dailyrainin,SoftwareType,DateUTC
2013-01-18 00:01:00,22.8,37.0,29.99,NNW,335,0.0,0.0,32,0.00,,,0.00,meteohub,2013-01-18 06:01:00,
2013-01-18 00:06:00,22.8,37.6,29.99,NNW,335,0.0,0.0,33,0.00,,,0.00,meteohub,2013-01-18 06:06:00,
2013-01-18 00:11:00,22.6,37.6,29.99,NNW,335,0.0,0.0,33,0.00,,,0.00,meteohub,2013-01-18 06:11:00,
2013-01-18 00:16:00,22.6,37.6,29.99,NNW,335,0.0,0.0,33,0.00,,,0.00,meteohub,2013-01-18 06:16:00,
2013-01-18 00:21:00,22.5,37.0,29.99,NNW,335,0.0,0.0,32,0.00,,,0.00,meteohub,2013-01-18 06:21:00,
2013-01-18 00:26:00,22.5,37.2,29.99,NNW,335,0.0,0.0,32,0.00,,,0.00,meteohub,2013-01-18 06:26:00,
2013-01-18 00:31:00,22.3,37.0,29.99,NNW,335,0.0,0.0,32,0.00,,,0.00,meteohub,2013-01-18 06:31:00,
2013-01-18 00:37:00,22.3,37.6,29.99,NNW,335,0.0,0.0,33,0.00,,,0.00,meteohub,2013-01-18 06:37:00,
2013-01-18 00:42:00,22.3,37.6,29.99,NNW,335,0.0,0.0,33,0.00,,,0.00,meteohub,2013-01-18 06:42:00,
2013-01-18 00:47:00,22.3,37.2,29.99,NNW,335,0.0,0.0,33,0.00,,,0.00,meteohub,2013-01-18 06:47:00,
2013-01-18 00:52:00,22.3,37.0,29.99,NNW,335,0.0,0.0,33,0.00,,,0.00,meteohub,2013-01-18 06:52:00,
2013-01-18 00:57:00,22.3,36.1,29.99,NNW,335,0.0,0.0,32,0.00,,,0.00,meteohub,2013-01-18 06:57:00,
2013-01-18 01:02:00,22.1,36.0,29.99,NNW,335,0.0,0.0,32,0.00,,,0.00,meteohub,2013-01-18 07:02:00,
2013-01-18 01:07:00,21.9,35.8,29.99,NNW,335,0.0,0.0,32,0.00,,,0.00,meteohub,2013-01-18 07:07:00,
2013-01-18 01:12:00,21.9,35.6,29.99,NNW,335,0.0,0.0,32,0.00,,,0.00,meteohub,2013-01-18 07:12:00,
2013-01-18 01:17:00,21.7,35.4,29.99,NNW,335,0.0,0.0,32,0.00,,,0.00,meteohub,2013-01-18 07:17:00,
2013-01-18 01:23:00,21.7,36.1,29.99,NNW,335,0.0,0.0,33,0.00,,,0.00,meteohub,2013-01-18 07:23:00,
2013-01-18 01:28:00,21.6,36.0,29.99,NNW,335,0.0,0.0,33,0.00,,,0.00,meteohub,2013-01-18 07:28:00,
2013-01-18 01:33:00,21.4,35.8,29.99,NNW,335,0.0,0.0,33,0.00,,,0.00,meteohub,2013-01-18 07:33:00,
2013-01-18 01:38:00,21.4,35.6,29.99,NNW,335,0.0,0.0,33,0.00,,,0.00,meteohub,2013-01-18 07:38:00,
2013-01-18 01:43:00,21.6,35.6,29.99,NNW,335,0.0,0.0,33,0.00,,,0.00,meteohub,2013-01-18 07:43:00,
2013-01-18 01:48:00,21.4,35.4,29.99,NNW,335,0.0,0.0,33,0.00,,,0.00,meteohub,2013-01-18 07:48:00,
2013-01-18 01:53:00,21.4,34.5,29.99,NNW,335,0.0,0.0,32,0.00,,,0.00,meteohub,2013-01-18 07:53:00,
2013-01-18 01:58:00,21.6,34.3,29.99,NNW,335,0.0,0.0,32,0.00,,,0.00,meteohub,2013-01-18 07:58:00,
2013-01-18 02:03:00,21.6,34.2,29.99,NNW,335,0.0,0.0,32,0.00,,,0.00,meteohub,2013-01-18 08:03:00,
2013-01-18 02:08:00,21.4,34.0,29.99,NNW,335,0.0,0.0,32,0.00,,,0.00,meteohub,2013-01-18 08:08:00,
2013-01-18 02:14:00,21.4,34.0,29.99,NNW,335,0.0,0.0,32,0.00,,,0.00,meteohub,2013-01-18 08:14:00,
2013-01-18 02:19:00,21.2,34.0,29.99,NNW,335,0.0,0.0,32,0.00,,,0.00,meteohub,2013-01-18 08:19:00,
2013-01-18 02:24:00,21.2,34.5,29.99,NNW,335,0.0,0.0,33,0.00,,,0.00,meteohub,2013-01-18 08:24:00,
2013-01-18 02:29:00,21.2,34.5,29.99,NNW,335,0.0,0.0,33,0.00,,,0.00,meteohub,2013-01-18 08:29:00,
2013-01-18 02:34:00,21.0,34.3,29.99,NNW,335,0.0,0.0,33,0.00,,,0.00,meteohub,2013-01-18 08:34:00,
2013-01-18 02:39:00,21.0,34.2,29.99,NNW,335,0.0,0.0,33,0.00,,,0.00,meteohub,2013-01-18 08:39:00,
2013-01-18 02:44:00,20.8,34.0,29.99,NNW,335,0.0,0.0,33,0.00,,,0.00,meteohub,2013-01-18 08:44:00,
2013-01-18 02:49:00,20.8,33.8,29.99,NNW,335,0.0,0.0,33,0.00,,,0.00,meteohub,2013-01-18 08:49:00,
2013-01-18 02:54:00,20.8,33.1,29.99,NNW,335,0.0,0.0,32,0.00,,,0.00,meteohub,2013-01-18 08:54:00,
2013-01-18 02:59:00,20.8,32.9,29.99,NNW,335,0.0,0.0,32,0.00,,,0.00,meteohub,2013-01-18 08:59:00,
2013-01-18 03:04:00,20.8,32.9,29.99,NNW,335,0.0,0.0,32,0.00,,,0.00,meteohub,2013-01-18 09:04:00,
2013-01-18 03:09:00,21.0,32.7,29.99,NNW,335,0.0,0.0,32,0.00,,,0.00,meteohub,2013-01-18 09:09:00,
2013-01-18 03:14:00,21.0,32.7,29.99,NNW,335,0.0,0.0,32,0.00,,,0.00,meteohub,2013-01-18 09:14:00,
2013-01-18 03:19:00,21.0,32.7,29.99,NNW,335,0.0,0.0,32,0.00,,,0.00,meteohub,2013-01-18 09:19:00,
2013-01-18 03:25:00,20.8,32.5,29.99,NNW,335,0.0,0.0,32,0.00,,,0.00,meteohub,2013-01-18 09:25:00,
2013-01-18 03:30:00,20.8,32.4,29.99,NNW,335,0.0,0.0,32,0.00,,,0.00,meteohub,2013-01-18 09:30:00,
2013-01-18 03:35:00,20.7,32.4,29.99,NNW,335,0.0,0.0,32,0.00,,,0.00,meteohub,2013-01-18 09:35:00,
2013-01-18 03:40:00,20.5,32.2,29.96,NNW,335,0.0,0.0,32,0.00,,,0.00,meteohub,2013-01-18 09:40:00,
2013-01-18 03:45:00,20.5,32.2,29.96,NNW,335,0.0,0.0,32,0.00,,,0.00,meteohub,2013-01-18 09:45:00,
2013-01-18 03:50:00,20.7,32.0,29.96,NNW,335,0.0,0.0,32,0.00,,,0.00,meteohub,2013-01-18 09:50:00,
2013-01-18 03:55:00,21.0,32.0,29.99,NNW,335,0.0,0.0,32,0.00,,,0.00,meteohub,2013-01-18 09:55:00,
2013-01-18 04:00:00,21.2,31.8,29.99,NNW,335,0.0,0.0,32,0.00,,,0.00,meteohub,2013-01-18 10:00:00,
2013-01-18 04:05:00,21.4,31.6,29.99,NNW,335,0.0,0.0,32,0.00,,,0.00,meteohub,2013-01-18 10:05:00,
2013-01-18 04:10:00,21.2,31.6,29.99,NNW,335,0.0,0.0,32,0.00,,,0.00,meteohub,2013-01-18 10:10:00,
2013-01-18 04:15:00,20.8,31.5,29.99,NNW,335,0.0,0.0,32,0.00,,,0.00,meteohub,2013-01-18 10:15:00,
2013-01-18 04:21:00,20.7,31.5,29.99,NNW,335,0.0,0.0,32,0.00,,,0.00,meteohub,2013-01-18 10:21:00,
2013-01-18 04:26:00,20.5,31.5,29.99,NNW,335,0.0,0.0,32,0.00,,,0.00,meteohub,2013-01-18 10:26:00,
2013-01-18 04:31:00,20.3,31.5,29.99,NNW,335,0.0,0.0,32,0.00,,,0.00,meteohub,2013-01-18 10:31:00,
2013-01-18 04:36:00,20.1,31.3,29.99,NNW,335,0.0,0.0,32,0.00,,,0.00,meteohub,2013-01-18 10:36:00,
2013-01-18 04:41:00,19.9,31.3,29.99,NNW,335,0.0,0.0,32,0.00,,,0.00,meteohub,2013-01-18 10:41:00,
2013-01-18 04:46:00,19.9,31.1,29.99,NNW,335,0.0,0.0,32,0.00,,,0.00,meteohub,2013-01-18 10:46:00,
2013-01-18 04:51:00,19.8,30.9,29.99,NNW,335,0.0,0.0,32,0.00,,,0.00,meteohub,2013-01-18 10:51:00,
2013-01-18 04:56:00,19.6,30.9,29.99,NNW,335,0.0,0.0,32,0.00,,,0.00,meteohub,2013-01-18 10:56:00,
2013-01-18 05:01:00,19.6,30.9,29.99,NNW,335,0.0,0.0,32,0.00,,,0.00,meteohub,2013-01-18 11:01:00,
2013-01-18 05:06:00,19.6,30.7,29.99,NNW,335,0.0,0.0,32,0.00,,,0.00,meteohub,2013-01-18 11:06:00,
2013-01-18 05:11:00,19.9,30.6,29.99,NNW,335,0.0,0.0,32,0.00,,,0.00,meteohub,2013-01-18 11:11:00,
2013-01-18 05:17:00,20.5,30.6,29.99,NNW,335,0.0,2.0,32,0.00,,,0.00,meteohub,2013-01-18 11:17:00,
2013-01-18 05:22:00,21.0,30.6,29.99,NNW,335,0.0,2.0,32,0.00,,,0.00,meteohub,2013-01-18 11:22:00,
2013-01-18 05:27:00,21.2,30.4,29.99,NNW,335,0.0,0.0,32,0.00,,,0.00,meteohub,2013-01-18 11:27:00,
2013-01-18 05:32:00,21.2,30.4,29.99,NNW,335,0.0,0.0,32,0.00,,,0.00,meteohub,2013-01-18 11:32:00,
2013-01-18 05:37:00,21.0,30.2,29.99,NNW,335,0.0,0.0,32,0.00,,,0.00,meteohub,2013-01-18 11:37:00,
2013-01-18 05:42:00,20.8,30.2,29.99,NNW,335,0.0,0.0,32,0.00,,,0.00,meteohub,2013-01-18 11:42:00,
2013-01-18 05:47:00,20.8,30.2,29.99,NNW,335,0.0,0.0,32,0.00,,,0.00,meteohub,2013-01-18 11:47:00,
2013-01-18 05:52:00,20.7,30.2,29.99,NNW,335,0.0,0.0,32,0.00,,,0.00,meteohub,2013-01-18 11:52:00,
2013-01-18 05:57:00,20.5,30.2,29.99,NNW,335,0.0,0.0,32,0.00,,,0.00,meteohub,2013-01-18 11:57:00,
2013-01-18 06:02:00,20.3,30.0,29.99,NNW,335,0.0,0.0,32,0.00,,,0.00,meteohub,2013-01-18 12:02:00,
2013-01-18 06:07:00,20.3,30.0,29.99,NNW,335,0.0,0.0,32,0.00,,,0.00,meteohub,2013-01-18 12:07:00,
2013-01-18 06:12:00,20.1,29.8,29.99,NNW,335,0.0,0.0,32,0.00,,,0.00,meteohub,2013-01-18 12:12:00,
2013-01-18 06:17:00,20.3,30.2,29.99,NNW,335,0.0,0.0,32,0.00,,,0.00,meteohub,2013-01-18 12:17:00,
2013-01-18 06:22:00,20.3,31.6,29.99,NNW,335,0.0,0.0,33,0.00,,,0.00,meteohub,2013-01-18 12:22:00,
2013-01-18 06:27:00,20.5,33.4,29.99,NNW,335,0.0,0.0,34,0.00,,,0.00,meteohub,2013-01-18 12:27:00,
2013-01-18 06:33:00,20.5,33.8,29.99,NNW,335,0.0,0.0,33,0.00,,,0.00,meteohub,2013-01-18 12:33:00,
2013-01-18 06:38:00,20.8,35.2,29.99,NNW,335,0.0,0.0,34,0.00,,,0.00,meteohub,2013-01-18 12:38:00,
2013-01-18 06:43:00,21.2,35.2,29.96,NNW,335,0.0,0.0,33,0.00,,,0.00,meteohub,2013-01-18 12:43:00,
2013-01-18 06:48:00,21.9,36.0,29.96,NNW,335,0.0,0.0,33,0.00,,,0.00,meteohub,2013-01-18 12:48:00,
2013-01-18 06:53:00,22.3,36.5,29.96,NNW,335,0.0,0.0,33,0.00,,,0.00,meteohub,2013-01-18 12:53:00,
2013-01-18 06:58:00,22.6,36.9,29.96,NNW,335,0.0,0.0,33,0.00,,,0.00,meteohub,2013-01-18 12:58:00,
2013-01-18 07:03:00,23.0,36.7,29.96,NNW,335,0.0,2.0,33,0.00,,,0.00,meteohub,2013-01-18 13:03:00,
2013-01-18 07:08:00,23.5,36.7,29.96,SSW,202,0.0,2.0,33,0.00,,,0.00,meteohub,2013-01-18 13:08:00,
2013-01-18 07:13:00,23.7,36.9,29.96,SSW,202,0.0,2.0,33,0.00,,,0.00,meteohub,2013-01-18 13:13:00,
2013-01-18 07:18:00,23.7,36.9,29.96,SSW,202,0.0,0.0,33,0.00,,,0.00,meteohub,2013-01-18 13:18:00,
2013-01-18 07:23:00,23.5,37.2,29.96,SSW,202,0.0,0.0,33,0.00,,,0.00,meteohub,2013-01-18 13:23:00,
2013-01-18 07:28:00,23.5,37.2,29.96,SSW,202,0.0,0.0,33,0.00,,,0.00,meteohub,2013-01-18 13:28:00,
2013-01-18 07:33:00,23.4,36.9,29.96,SSW,202,0.0,0.0,33,0.00,,,0.00,meteohub,2013-01-18 13:33:00,
2013-01-18 07:38:00,23.2,37.0,29.96,SSW,202,0.0,0.0,33,0.00,,,0.00,meteohub,2013-01-18 13:38:00,
2013-01-18 07:43:00,22.8,37.0,29.99,SSW,202,0.0,0.0,33,0.00,,,0.00,meteohub,2013-01-18 13:43:00,
2013-01-18 07:48:00,22.8,36.7,29.99,SSW,202,0.0,0.0,33,0.00,,,0.00,meteohub,2013-01-18 13:48:00,
2013-01-18 07:53:00,22.8,36.7,29.99,SSW,202,0.0,0.0,33,0.00,,,0.00,meteohub,2013-01-18 13:53:00,
2013-01-18 07:59:00,22.8,36.7,29.99,SSW,202,0.0,0.0,33,0.00,,,0.00,meteohub,2013-01-18 13:59:00,
2013-01-18 08:04:00,23.0,36.5,29.99,SSW,202,0.0,0.0,33,0.00,,,0.00,meteohub,2013-01-18 14:04:00,
2013-01-18 08:09:00,23.5,36.9,29.96,SSW,202,0.0,0.0,33,0.00,,,0.00,meteohub,2013-01-18 14:09:00,
2013-01-18 08:14:00,24.4,36.7,29.96,SSW,204,0.0,0.0,33,0.00,,,0.00,meteohub,2013-01-18 14:14:00,
2013-01-18 08:19:00,25.7,36.7,29.96,SSW,208,0.0,3.0,33,0.00,,,0.00,meteohub,2013-01-18 14:19:00,
2013-01-18 08:24:00,26.6,36.7,29.96,SSW,207,0.0,3.0,33,0.00,,,0.00,meteohub,2013-01-18 14:24:00,
2013-01-18 08:29:00,27.5,36.5,29.96,SSW,206,0.0,3.0,33,0.00,,,0.00,meteohub,2013-01-18 14:29:00,
2013-01-18 08:34:00,27.9,36.7,29.96,SSW,206,0.0,3.0,33,0.00,,,0.00,meteohub,2013-01-18 14:34:00,
2013-01-18 08:39:00,28.4,36.5,29.96,SSW,206,0.0,0.0,33,0.00,,,0.00,meteohub,2013-01-18 14:39:00,
2013-01-18 08:44:00,29.3,36.3,29.96,SSW,206,0.0,0.0,33,0.00,,,0.00,meteohub,2013-01-18 14:44:00,
2013-01-18 08:49:00,30.6,36.1,29.96,SSW,206,0.0,0.0,33,0.00,,,0.00,meteohub,2013-01-18 14:49:00,
2013-01-18 08:54:00,31.6,36.1,29.96,SSW,206,0.0,0.0,33,0.00,,,0.00,meteohub,2013-01-18 14:54:00,
2013-01-18 08:59:00,32.7,36.3,29.96,SE,143,0.0,0.0,33,0.00,,,0.00,meteohub,2013-01-18 14:59:00,
2013-01-18 09:04:00,33.6,36.1,29.96,SSW,194,0.0,0.0,33,0.00,,,0.00,meteohub,2013-01-18 15:04:00,
2013-01-18 09:09:00,34.5,36.0,29.96,SSW,198,0.0,0.0,33,0.00,,,0.00,meteohub,2013-01-18 15:09:00,
2013-01-18 09:15:00,35.4,35.8,29.96,SSW,198,0.0,0.0,33,0.00,,,0.00,meteohub,2013-01-18 15:15:00,
2013-01-18 09:20:00,35.4,35.6,29.96,WSW,251,3.0,0.0,33,0.00,,,0.00,meteohub,2013-01-18 15:20:00,
2013-01-18 09:25:00,35.1,35.2,29.96,South,186,2.0,4.0,33,0.00,,,0.00,meteohub,2013-01-18 15:25:00,
2013-01-18 09:30:00,34.7,35.1,29.96,SSW,192,2.0,4.0,33,0.00,,,0.00,meteohub,2013-01-18 15:30:00,
2013-01-18 09:35:00,34.9,35.1,29.96,SSW,212,3.0,6.0,33,0.00,,,0.00,meteohub,2013-01-18 15:35:00,
2013-01-18 09:40:00,35.6,35.6,29.96,South,181,5.0,7.0,33,0.00,,,0.00,meteohub,2013-01-18 15:40:00,
2013-01-18 09:45:00,35.8,35.6,29.96,SW,215,4.0,8.0,33,0.00,,,0.00,meteohub,2013-01-18 15:45:00,
2013-01-18 09:50:00,36.1,35.4,29.96,SSW,210,5.0,8.0,33,0.00,,,0.00,meteohub,2013-01-18 15:50:00,
2013-01-18 09:55:00,36.5,35.2,29.96,SW,215,4.0,8.0,33,0.00,,,0.00,meteohub,2013-01-18 15:55:00,
2013-01-18 10:00:00,36.9,35.1,29.96,SSW,203,5.0,8.0,33,0.00,,,0.00,meteohub,2013-01-18 16:00:00,
2013-01-18 10:05:00,37.0,35.1,29.96,SW,223,6.0,6.0,33,0.00,,,0.00,meteohub,2013-01-18 16:05:00,
2013-01-18 10:10:00,37.6,35.1,29.96,SW,219,4.0,8.0,33,0.00,,,0.00,meteohub,2013-01-18 16:10:00,
2013-01-18 10:16:00,38.5,35.2,29.96,SW,217,4.0,8.0,33,0.00,,,0.00,meteohub,2013-01-18 16:16:00,
2013-01-18 10:21:00,39.0,35.2,29.96,SSW,204,3.0,8.0,33,0.00,,,0.00,meteohub,2013-01-18 16:21:00,
2013-01-18 10:26:00,39.4,35.1,29.93,SSW,204,5.0,6.0,33,0.00,,,0.00,meteohub,2013-01-18 16:26:00,
2013-01-18 10:31:00,39.9,35.1,29.93,SSW,208,5.0,6.0,33,0.00,,,0.00,meteohub,2013-01-18 16:31:00,
2013-01-18 10:36:00,40.5,34.9,29.93,SSW,204,4.0,6.0,33,0.00,,,0.00,meteohub,2013-01-18 16:36:00,
2013-01-18 10:41:00,40.6,34.9,29.93,South,189,5.0,9.0,33,0.00,,,0.00,meteohub,2013-01-18 16:41:00,
2013-01-18 10:46:00,40.8,34.7,29.93,South,189,6.0,9.0,33,0.00,,,0.00,meteohub,2013-01-18 16:46:00,
2013-01-18 10:51:00,41.4,34.7,29.93,SSW,208,4.0,9.0,33,0.00,,,0.00,meteohub,2013-01-18 16:51:00,
2013-01-18 10:56:00,41.7,34.5,29.90,SSW,197,6.0,8.0,33,0.00,,,0.00,meteohub,2013-01-18 16:56:00,
2013-01-18 11:01:00,42.1,34.5,29.90,SSW,195,5.0,9.0,33,0.00,,,0.00,meteohub,2013-01-18 17:01:00,
2013-01-18 11:06:00,42.3,34.5,29.90,SW,216,6.0,10.0,33,0.00,,,0.00,meteohub,2013-01-18 17:06:00,
2013-01-18 11:11:00,42.6,35.1,29.90,South,176,5.0,10.0,33,0.00,,,0.00,meteohub,2013-01-18 17:11:00,
2013-01-18 11:16:00,43.0,34.9,29.90,SSW,207,5.0,9.0,33,0.00,,,0.00,meteohub,2013-01-18 17:16:00,
2013-01-18 11:22:00,43.2,34.9,29.90,SSW,192,8.0,10.0,33,0.00,,,0.00,meteohub,2013-01-18 17:22:00,
2013-01-18 11:27:00,43.5,34.7,29.90,SSW,195,5.0,10.0,33,0.00,,,0.00,meteohub,2013-01-18 17:27:00,
2013-01-18 11:32:00,43.9,34.7,29.90,South,188,8.0,10.0,33,0.00,,,0.00,meteohub,2013-01-18 17:32:00,
2013-01-18 11:37:00,44.2,34.5,29.90,SSW,202,5.0,10.0,33,0.00,,,0.00,meteohub,2013-01-18 17:37:00,
2013-01-18 11:42:00,44.8,34.5,29.87,SSW,213,4.0,11.0,33,0.00,,,0.00,meteohub,2013-01-18 17:42:00,
2013-01-18 11:47:00,45.5,34.9,29.87,SW,222,3.0,11.0,33,0.00,,,0.00,meteohub,2013-01-18 17:47:00,
2013-01-18 11:52:00,46.2,35.6,29.87,SSW,212,6.0,11.0,33,0.00,,,0.00,meteohub,2013-01-18 17:52:00,
2013-01-18 11:57:00,46.2,36.5,29.87,ESE,108,4.0,10.0,33,0.00,,,0.00,meteohub,2013-01-18 17:57:00,
2013-01-18 12:02:00,46.6,37.2,29.87,ESE,106,3.0,10.0,33,0.00,,,0.00,meteohub,2013-01-18 18:02:00,
2013-01-18 12:08:00,47.1,37.2,29.87,SSW,210,3.0,10.0,33,0.00,,,0.00,meteohub,2013-01-18 18:08:00,
2013-01-18 12:13:00,47.3,37.0,29.84,ESE,111,4.0,8.0,33,0.00,,,0.00,meteohub,2013-01-18 18:13:00,
2013-01-18 12:18:00,47.7,37.4,29.84,SSW,201,7.0,8.0,33,0.00,,,0.00,meteohub,2013-01-18 18:18:00,
2013-01-18 12:23:00,47.7,37.6,29.84,SSE,165,6.0,9.0,33,0.00,,,0.00,meteohub,2013-01-18 18:23:00,
2013-01-18 12:28:00,48.0,37.4,29.84,South,176,4.0,9.0,33,0.00,,,0.00,meteohub,2013-01-18 18:28:00,
2013-01-18 12:33:00,48.6,37.2,29.84,SSW,205,4.0,8.0,33,0.00,,,0.00,meteohub,2013-01-18 18:33:00,
2013-01-18 12:38:00,48.7,37.2,29.81,SW,217,10.0,10.0,33,0.00,,,0.00,meteohub,2013-01-18 18:38:00,
2013-01-18 12:43:00,48.9,37.4,29.81,SSW,195,8.0,8.0,33,0.00,,,0.00,meteohub,2013-01-18 18:43:00,
2013-01-18 12:48:00,48.9,37.2,29.81,SSW,199,4.0,10.0,33,0.00,,,0.00,meteohub,2013-01-18 18:48:00,
2013-01-18 12:53:00,49.1,37.0,29.81,South,191,5.0,10.0,33,0.00,,,0.00,meteohub,2013-01-18 18:53:00,
2013-01-18 12:58:00,49.8,37.0,29.81,South,190,4.0,10.0,33,0.00,,,0.00,meteohub,2013-01-18 18:58:00,
2013-01-18 13:03:00,50.2,37.4,29.81,SSW,207,6.0,9.0,33,0.00,,,0.00,meteohub,2013-01-18 19:03:00,
2013-01-18 13:09:00,50.5,37.4,29.78,SSW,201,0.0,9.0,33,0.00,,,0.00,meteohub,2013-01-18 19:09:00,
2013-01-18 13:14:00,51.1,37.2,29.78,SSW,193,5.0,9.0,33,0.00,,,0.00,meteohub,2013-01-18 19:14:00,
2013-01-18 13:19:00,51.3,37.2,29.78,SW,221,0.0,8.0,33,0.00,,,0.00,meteohub,2013-01-18 19:19:00,
2013-01-18 13:24:00,51.8,37.0,29.78,SSW,197,5.0,10.0,33,0.00,,,0.00,meteohub,2013-01-18 19:24:00,
2013-01-18 13:29:00,52.2,36.9,29.78,SSW,202,5.0,10.0,33,0.00,,,0.00,meteohub,2013-01-18 19:29:00,
2013-01-18 13:34:00,52.2,36.9,29.78,SE,137,6.0,10.0,33,0.00,,,0.00,meteohub,2013-01-18 19:34:00,
2013-01-18 13:39:00,52.5,36.7,29.78,East,91,2.0,8.0,33,0.00,,,0.00,meteohub,2013-01-18 19:39:00,
2013-01-18 13:44:00,52.9,36.7,29.78,SSW,213,5.0,8.0,33,0.00,,,0.00,meteohub,2013-01-18 19:44:00,
2013-01-18 13:49:00,53.2,36.7,29.78,SW,214,6.0,8.0,33,0.00,,,0.00,meteohub,2013-01-18 19:49:00,
2013-01-18 13:54:00,53.8,36.7,29.78,SSW,195,5.0,8.0,33,0.00,,,0.00,meteohub,2013-01-18 19:54:00,
2013-01-18 14:00:00,54.7,36.7,29.78,SSW,205,6.0,8.0,33,0.00,,,0.00,meteohub,2013-01-18 20:00:00,
2013-01-18 14:05:00,54.9,36.5,29.78,SSW,193,8.0,8.0,33,0.00,,,0.00,meteohub,2013-01-18 20:05:00,
2013-01-18 14:10:00,54.5,36.5,29.75,SSW,209,6.0,6.0,33,0.00,,,0.00,meteohub,2013-01-18 20:10:00,
2013-01-18 14:15:00,54.3,36.5,29.75,SSW,201,8.0,11.0,33,0.00,,,0.00,meteohub,2013-01-18 20:15:00,
2013-01-18 14:20:00,54.7,36.5,29.75,WSW,254,6.0,11.0,33,0.00,,,0.00,meteohub,2013-01-18 20:20:00,
2013-01-18 14:25:00,54.9,36.5,29.75,South,176,5.0,9.0,33,0.00,,,0.00,meteohub,2013-01-18 20:25:00,
2013-01-18 14:30:00,55.0,36.5,29.75,SW,217,4.0,9.0,33,0.00,,,0.00,meteohub,2013-01-18 20:30:00,
2013-01-18 14:35:00,55.6,36.5,29.75,SSW,211,9.0,9.0,33,0.00,,,0.00,meteohub,2013-01-18 20:35:00,
2013-01-18 14:40:00,55.4,36.5,29.75,SSW,208,10.0,10.0,33,0.00,,,0.00,meteohub,2013-01-18 20:40:00,
2013-01-18 14:45:00,55.2,36.5,29.75,South,189,3.0,10.0,33,0.00,,,0.00,meteohub,2013-01-18 20:45:00,
2013-01-18 14:50:00,55.4,36.5,29.75,SW,215,4.0,10.0,33,0.00,,,0.00,meteohub,2013-01-18 20:50:00,
2013-01-18 14:55:00,55.6,36.5,29.72,SW,214,6.0,10.0,33,0.00,,,0.00,meteohub,2013-01-18 20:55:00,
2013-01-18 15:00:00,55.6,36.5,29.72,SSW,205,5.0,8.0,33,0.00,,,0.00,meteohub,2013-01-18 21:00:00,
2013-01-18 15:06:00,55.6,36.5,29.72,SSW,202,4.0,8.0,33,0.00,,,0.00,meteohub,2013-01-18 21:06:00,
2013-01-18 15:11:00,55.4,36.5,29.72,SSW,212,5.0,8.0,33,0.00,,,0.00,meteohub,2013-01-18 21:11:00,
2013-01-18 15:16:00,55.0,36.5,29.72,SSW,203,5.0,8.0,33,0.00,,,0.00,meteohub,2013-01-18 21:16:00,
2013-01-18 15:21:00,54.9,36.5,29.72,WSW,251,4.0,7.0,33,0.00,,,0.00,meteohub,2013-01-18 21:21:00,
2013-01-18 15:26:00,54.7,36.5,29.72,SSW,210,3.0,7.0,33,0.00,,,0.00,meteohub,2013-01-18 21:26:00,
2013-01-18 15:31:00,54.7,36.5,29.72,SSW,208,4.0,8.0,33,0.00,,,0.00,meteohub,2013-01-18 21:31:00,
2013-01-18 15:36:00,54.5,36.5,29.72,SSW,192,6.0,8.0,33,0.00,,,0.00,meteohub,2013-01-18 21:36:00,
2013-01-18 15:41:00,54.1,36.5,29.72,SSW,197,6.0,9.0,33,0.00,,,0.00,meteohub,2013-01-18 21:41:00,
2013-01-18 15:46:00,53.8,36.5,29.72,SSW,211,9.0,9.0,33,0.00,,,0.00,meteohub,2013-01-18 21:46:00,
2013-01-18 15:51:00,53.6,36.7,29.72,SSW,203,4.0,9.0,33,0.00,,,0.00,meteohub,2013-01-18 21:51:00,
2013-01-18 15:56:00,53.2,36.7,29.72,SW,218,6.0,9.0,33,0.00,,,0.00,meteohub,2013-01-18 21:56:00,
2013-01-18 16:01:00,53.1,36.7,29.72,SW,214,6.0,9.0,33,0.00,,,0.00,meteohub,2013-01-18 22:01:00,
2013-01-18 16:07:00,53.1,36.7,29.72,SSW,194,3.0,8.0,33,0.00,,,0.00,meteohub,2013-01-18 22:07:00,
2013-01-18 16:12:00,52.9,36.7,29.69,SSW,192,6.0,9.0,33,0.00,,,0.00,meteohub,2013-01-18 22:12:00,
2013-01-18 16:17:00,52.7,36.9,29.69,SSW,211,6.0,9.0,33,0.00,,,0.00,meteohub,2013-01-18 22:17:00,
2013-01-18 16:22:00,52.5,36.9,29.69,SSW,197,5.0,9.0,33,0.00,,,0.00,meteohub,2013-01-18 22:22:00,
2013-01-18 16:27:00,52.3,36.9,29.69,SSW,202,5.0,9.0,33,0.00,,,0.00,meteohub,2013-01-18 22:27:00,
2013-01-18 16:32:00,52.2,36.7,29.69,SSW,196,5.0,11.0,33,0.00,,,0.00,meteohub,2013-01-18 22:32:00,
2013-01-18 16:37:00,52.0,36.7,29.69,SW,214,4.0,11.0,33,0.00,,,0.00,meteohub,2013-01-18 22:37:00,
2013-01-18 16:42:00,51.6,36.7,29.69,South,186,6.0,11.0,33,0.00,,,0.00,meteohub,2013-01-18 22:42:00,
2013-01-18 16:47:00,51.3,36.7,29.69,SW,225,8.0,8.0,33,0.00,,,0.00,meteohub,2013-01-18 22:47:00,
2013-01-18 16:53:00,50.9,36.7,29.69,SSW,194,5.0,8.0,33,0.00,,,0.00,meteohub,2013-01-18 22:53:00,
2013-01-18 16:58:00,50.7,36.5,29.69,SW,229,4.0,8.0,33,0.00,,,0.00,meteohub,2013-01-18 22:58:00,
2013-01-18 17:03:00,50.5,36.5,29.69,SW,225,4.0,8.0,33,0.00,,,0.00,meteohub,2013-01-18 23:03:00,
2013-01-18 17:08:00,50.2,36.5,29.69,WNW,283,4.0,8.0,33,0.00,,,0.00,meteohub,2013-01-18 23:08:00,
2013-01-18 17:13:00,50.0,36.7,29.69,SSW,196,4.0,8.0,33,0.00,,,0.00,meteohub,2013-01-18 23:13:00,
2013-01-18 17:18:00,49.6,36.7,29.69,SSW,202,4.0,7.0,33,0.00,,,0.00,meteohub,2013-01-18 23:18:00,
2013-01-18 17:23:00,49.1,36.7,29.69,SSW,200,5.0,7.0,33,0.00,,,0.00,meteohub,2013-01-18 23:23:00,
2013-01-18 17:28:00,48.7,36.9,29.69,SW,220,3.0,7.0,33,0.00,,,0.00,meteohub,2013-01-18 23:28:00,
2013-01-18 17:33:00,48.6,37.4,29.69,WSW,246,4.0,8.0,33,0.00,,,0.00,meteohub,2013-01-18 23:33:00,
2013-01-18 17:38:00,48.2,37.9,29.69,South,179,3.0,8.0,33,0.00,,,0.00,meteohub,2013-01-18 23:38:00,
2013-01-18 17:43:00,48.0,38.1,29.69,SSW,208,4.0,8.0,33,0.00,,,0.00,meteohub,2013-01-18 23:43:00,
2013-01-18 17:49:00,47.7,37.9,29.69,South,185,5.0,6.0,33,0.00,,,0.00,meteohub,2013-01-18 23:49:00,
2013-01-18 17:54:00,47.5,38.1,29.69,SSW,209,5.0,6.0,33,0.00,,,0.00,meteohub,2013-01-18 23:54:00,
2013-01-18 17:59:00,47.3,38.7,29.69,SSW,201,4.0,6.0,33,0.00,,,0.00,meteohub,2013-01-18 23:59:00,
2013-01-18 18:04:00,47.1,38.7,29.69,SSW,205,3.0,6.0,33,0.00,,,0.00,meteohub,2013-01-19 00:04:00,
2013-01-18 18:09:00,46.8,38.7,29.69,South,179,6.0,6.0,33,0.00,,,0.00,meteohub,2013-01-19 00:09:00,
2013-01-18 18:14:00,46.6,38.5,29.69,SSW,194,4.0,6.0,33,0.00,,,0.00,meteohub,2013-01-19 00:14:00,
2013-01-18 18:19:00,46.4,38.5,29.69,SSW,199,4.0,6.0,33,0.00,,,0.00,meteohub,2013-01-19 00:19:00,
2013-01-18 18:24:00,46.2,38.3,29.69,South,185,4.0,6.0,33,0.00,,,0.00,meteohub,2013-01-19 00:24:00,
2013-01-18 18:29:00,46.2,38.3,29.69,West,265,3.0,6.0,33,0.00,,,0.00,meteohub,2013-01-19 00:29:00,
2013-01-18 18:34:00,46.0,38.3,29.69,SSW,211,2.0,5.0,33,0.00,,,0.00,meteohub,2013-01-19 00:34:00,
2013-01-18 18:39:00,46.0,39.2,29.69,South,183,6.0,6.0,33,0.00,,,0.00,meteohub,2013-01-19 00:39:00,
2013-01-18 18:45:00,46.0,39.6,29.69,SSW,202,6.0,6.0,33,0.00,,,0.00,meteohub,2013-01-19 00:45:00,
2013-01-18 18:50:00,45.9,39.6,29.69,NNE,31,4.0,6.0,33,0.00,,,0.00,meteohub,2013-01-19 00:50:00,
2013-01-18 18:55:00,45.7,39.4,29.69,SW,216,3.0,8.0,33,0.00,,,0.00,meteohub,2013-01-19 00:55:00,
2013-01-18 19:00:00,45.5,39.2,29.69,SSW,192,4.0,8.0,33,0.00,,,0.00,meteohub,2013-01-19 01:00:00,
2013-01-18 19:05:00,45.5,39.0,29.69,SSE,153,2.0,6.0,33,0.00,,,0.00,meteohub,2013-01-19 01:05:00,
2013-01-18 19:10:00,45.3,39.2,29.69,East,87,6.0,6.0,33,0.00,,,0.00,meteohub,2013-01-19 01:10:00,
2013-01-18 19:15:00,45.3,39.7,29.69,SE,128,4.0,8.0,33,0.00,,,0.00,meteohub,2013-01-19 01:15:00,
2013-01-18 19:20:00,45.1,39.6,29.69,South,178,2.0,8.0,33,0.00,,,0.00,meteohub,2013-01-19 01:20:00,
2013-01-18 19:25:00,45.1,38.7,29.69,SSW,203,0.0,8.0,32,0.00,,,0.00,meteohub,2013-01-19 01:25:00,
2013-01-18 19:31:00,44.8,38.7,29.69,SSW,210,4.0,8.0,32,0.00,,,0.00,meteohub,2013-01-19 01:31:00,
2013-01-18 19:36:00,44.6,39.2,29.69,SSW,202,4.0,8.0,33,0.00,,,0.00,meteohub,2013-01-19 01:36:00,
2013-01-18 19:41:00,44.4,39.2,29.69,South,184,5.0,8.0,33,0.00,,,0.00,meteohub,2013-01-19 01:41:00,
2013-01-18 19:46:00,44.2,38.8,29.69,SSW,203,6.0,6.0,32,0.00,,,0.00,meteohub,2013-01-19 01:46:00,
2013-01-18 19:51:00,44.1,38.8,29.69,South,181,3.0,6.0,32,0.00,,,0.00,meteohub,2013-01-19 01:51:00,
2013-01-18 19:56:00,43.7,38.8,29.69,SSW,201,4.0,6.0,32,0.00,,,0.00,meteohub,2013-01-19 01:56:00,
2013-01-18 20:01:00,43.5,38.7,29.69,SW,217,3.0,6.0,32,0.00,,,0.00,meteohub,2013-01-19 02:01:00,
2013-01-18 20:07:00,43.3,38.7,29.69,SW,232,5.0,6.0,32,0.00,,,0.00,meteohub,2013-01-19 02:07:00,
2013-01-18 20:12:00,43.0,38.7,29.69,SSW,196,3.0,6.0,32,0.00,,,0.00,meteohub,2013-01-19 02:12:00,
2013-01-18 20:17:00,42.8,38.8,29.69,SSW,213,4.0,6.0,32,0.00,,,0.00,meteohub,2013-01-19 02:17:00,
2013-01-18 20:22:00,42.8,38.8,29.69,SSW,211,3.0,9.0,32,0.00,,,0.00,meteohub,2013-01-19 02:22:00,
2013-01-18 20:27:00,42.6,38.7,29.69,SSW,192,3.0,9.0,32,0.00,,,0.00,meteohub,2013-01-19 02:27:00,
2013-01-18 20:32:00,42.4,39.2,29.69,South,180,5.0,9.0,33,0.00,,,0.00,meteohub,2013-01-19 02:32:00,
2013-01-18 20:38:00,42.6,38.7,29.69,SSW,195,6.0,6.0,32,0.00,,,0.00,meteohub,2013-01-19 02:38:00,
2013-01-18 20:43:00,42.8,38.8,29.66,SSW,212,6.0,6.0,32,0.00,,,0.00,meteohub,2013-01-19 02:43:00,
2013-01-18 20:48:00,43.0,38.7,29.66,South,186,4.0,8.0,32,0.00,,,0.00,meteohub,2013-01-19 02:48:00,
2013-01-18 20:53:00,43.0,39.2,29.66,SW,217,4.0,8.0,33,0.00,,,0.00,meteohub,2013-01-19 02:53:00,
2013-01-18 20:58:00,43.0,39.0,29.66,SSW,204,6.0,8.0,33,0.00,,,0.00,meteohub,2013-01-19 02:58:00,
2013-01-18 21:03:00,43.0,39.2,29.66,SSE,157,5.0,8.0,33,0.00,,,0.00,meteohub,2013-01-19 03:03:00,
2013-01-18 21:08:00,43.0,38.7,29.66,SSW,208,4.0,8.0,32,0.00,,,0.00,meteohub,2013-01-19 03:08:00,
2013-01-18 21:13:00,43.0,38.7,29.66,SW,230,5.0,8.0,32,0.00,,,0.00,meteohub,2013-01-19 03:13:00,
2013-01-18 21:19:00,42.8,39.2,29.66,SSW,210,4.0,8.0,33,0.00,,,0.00,meteohub,2013-01-19 03:19:00,
2013-01-18 21:24:00,42.8,39.0,29.66,South,180,6.0,8.0,33,0.00,,,0.00,meteohub,2013-01-19 03:24:00,
2013-01-18 21:29:00,42.8,39.2,29.66,SSW,201,6.0,8.0,33,0.00,,,0.00,meteohub,2013-01-19 03:29:00,
2013-01-18 21:34:00,42.6,38.8,29.66,SSW,205,5.0,8.0,32,0.00,,,0.00,meteohub,2013-01-19 03:34:00,
2013-01-18 21:39:00,42.4,38.8,29.66,SW,224,6.0,8.0,32,0.00,,,0.00,meteohub,2013-01-19 03:39:00,
2013-01-18 21:44:00,42.4,38.8,29.66,SW,236,6.0,8.0,32,0.00,,,0.00,meteohub,2013-01-19 03:44:00,
2013-01-18 21:49:00,42.4,38.7,29.66,SSW,212,6.0,8.0,32,0.00,,,0.00,meteohub,2013-01-19 03:49:00,
2013-01-18 21:54:00,42.6,39.2,29.66,South,180,8.0,8.0,33,0.00,,,0.00,meteohub,2013-01-19 03:54:00,
2013-01-18 21:59:00,42.6,38.7,29.66,SSW,212,5.0,8.0,32,0.00,,,0.00,meteohub,2013-01-19 03:59:00,
2013-01-18 22:05:00,42.4,38.7,29.66,SSW,199,3.0,8.0,32,0.00,,,0.00,meteohub,2013-01-19 04:05:00,
2013-01-18 22:10:00,42.6,39.2,29.66,SW,220,8.0,8.0,33,0.00,,,0.00,meteohub,2013-01-19 04:10:00,
2013-01-18 22:15:00,42.8,39.2,29.66,SSW,209,5.0,8.0,33,0.00,,,0.00,meteohub,2013-01-19 04:15:00,
2013-01-18 22:20:00,43.0,38.7,29.66,SW,227,3.0,8.0,32,0.00,,,0.00,meteohub,2013-01-19 04:20:00,
2013-01-18 22:25:00,42.8,38.7,29.66,SSW,192,5.0,8.0,32,0.00,,,0.00,meteohub,2013-01-19 04:25:00,
2013-01-18 22:31:00,43.0,38.7,29.66,South,177,5.0,8.0,32,0.00,,,0.00,meteohub,2013-01-19 04:31:00,
2013-01-18 22:36:00,43.0,39.2,29.66,South,169,5.0,8.0,33,0.00,,,0.00,meteohub,2013-01-19 04:36:00,
2013-01-18 22:41:00,43.2,38.8,29.63,SE,141,4.0,11.0,33,0.00,,,0.00,meteohub,2013-01-19 04:41:00,
2013-01-18 22:46:00,43.2,38.7,29.63,SSW,211,6.0,11.0,32,0.00,,,0.00,meteohub,2013-01-19 04:46:00,
2013-01-18 22:51:00,43.3,38.7,29.63,South,186,6.0,10.0,32,0.00,,,0.00,meteohub,2013-01-19 04:51:00,
2013-01-18 22:56:00,43.3,39.2,29.63,West,259,7.0,9.0,33,0.00,,,0.00,meteohub,2013-01-19 04:56:00,
2013-01-18 23:03:00,43.3,39.0,29.63,South,170,5.0,9.0,33,0.00,,,0.00,meteohub,2013-01-19 05:03:00,
2013-01-18 23:04:00,43.3,39.0,29.63,SSE,152,5.0,9.0,33,0.00,,,0.00,meteohub,2013-01-19 05:04:00,
2013-01-18 23:08:00,43.5,39.2,29.63,SSW,203,3.0,11.0,33,0.00,,,0.00,meteohub,2013-01-19 05:08:00,
2013-01-18 23:13:00,43.5,39.2,29.63,SW,230,4.0,11.0,33,0.00,,,0.00,meteohub,2013-01-19 05:13:00,
2013-01-18 23:18:00,43.7,39.2,29.63,South,188,5.0,11.0,33,0.00,,,0.00,meteohub,2013-01-19 05:18:00,
2013-01-18 23:24:00,43.7,39.0,29.63,South,186,4.0,11.0,33,0.00,,,0.00,meteohub,2013-01-19 05:24:00,
2013-01-18 23:29:00,43.5,39.0,29.63,SSW,196,4.0,11.0,33,0.00,,,0.00,meteohub,2013-01-19 05:29:00,
2013-01-18 23:34:00,43.3,38.8,29.63,WSW,255,6.0,9.0,32,0.00,,,0.00,meteohub,2013-01-19 05:34:00,
2013-01-18 23:39:00,43.0,38.8,29.66,SSW,203,8.0,9.0,32,0.00,,,0.00,meteohub,2013-01-19 05:39:00,
2013-01-18 23:45:00,42.4,38.7,29.66,South,184,6.0,10.0,32,0.00,,,0.00,meteohub,2013-01-19 05:45:00,
2013-01-18 23:50:00,42.3,39.2,29.66,SSW,207,6.0,10.0,33,0.00,,,0.00,meteohub,2013-01-19 05:50:00,
2013-01-18 23:55:00,42.3,39.2,29.63,South,187,6.0,8.0,33,0.00,,,0.00,meteohub,2013-01-19 05:55:00,